Hourly Weather Passo Fundo

Today, 1 December, Tuesday

Time Temperature Precipitation Wind Pressure Humidity
00:00 +18°C° 0 mm 4 mps 705 mmHg 96%
01:00 +18°C° 0 mm 4 mps 705 mmHg 96%
02:00 +18°C° 0 mm 4 mps 705 mmHg 95%
03:00 +18°C° 0 mm 4 mps 705 mmHg 95%
04:00 +18°C° 0 mm 4 mps 705 mmHg 95%
05:00 +17°C° 0 mm 4 mps 704 mmHg 95%
06:00 +17°C° 0 mm 4 mps 704 mmHg 95%
07:00 +19°C° 0 mm 3 mps 705 mmHg 90%
08:00 +21°C° 0 mm 3 mps 706 mmHg 86%
09:00 +24°C° 0 mm 3 mps 707 mmHg 80%
10:00 +25°C° 0.3 mm 3 mps 706 mmHg 77%
11:00 +26°C° 0.3 mm 2 mps 706 mmHg 74%
12:00 +27°C° 0.3 mm 2 mps 706 mmHg 71%
13:00 +27°C° 0.5 mm 2 mps 705 mmHg 70%
14:00 +27°C° 0.5 mm 2 mps 705 mmHg 69%
15:00 +28°C° 0.5 mm 1 mps 704 mmHg 69%
16:00 +27°C° 0.4 mm 2 mps 704 mmHg 72%
17:00 +26°C° 0.4 mm 2 mps 703 mmHg 76%
18:00 +26°C° 0.4 mm 2 mps 703 mmHg 79%
19:00 +24°C° 0 mm 2 mps 703 mmHg 84%
20:00 +22°C° 0 mm 3 mps 703 mmHg 88%
21:00 +20°C° 0 mm 3 mps 703 mmHg 93%
22:00 +20°C° 0 mm 3 mps 703 mmHg 93%
23:00 +19°C° 0 mm 3 mps 704 mmHg 94%

Tomorrow, 2 December, Wednesday

Time Temperature Precipitation Wind Pressure Humidity
00:00 +19°C° 0 mm 4 mps 704 mmHg 94%
01:00 +19°C° 0 mm 4 mps 703 mmHg 94%
02:00 +19°C° 0 mm 5 mps 703 mmHg 94%
03:00 +17°C° 0 mm 5 mps 702 mmHg 94%
04:00 +17°C° 0 mm 5 mps 702 mmHg 94%
05:00 +18°C° 0 mm 4 mps 703 mmHg 93%
06:00 +18°C° 0 mm 4 mps 703 mmHg 93%
07:00 +20°C° 0 mm 4 mps 703 mmHg 88%
08:00 +22°C° 0 mm 3 mps 704 mmHg 83%
09:00 +25°C° 0 mm 3 mps 704 mmHg 78%
10:00 +27°C° 0.1 mm 3 mps 704 mmHg 71%
11:00 +29°C° 0.1 mm 2 mps 704 mmHg 65%
12:00 +30°C° 0.1 mm 1 mps 703 mmHg 58%
13:00 +31°C° 0.1 mm 1 mps 703 mmHg 57%
14:00 +31°C° 0.1 mm 2 mps 702 mmHg 57%
15:00 +31°C° 0.1 mm 2 mps 701 mmHg 56%
16:00 +30°C° 0.2 mm 2 mps 700 mmHg 62%
17:00 +29°C° 0.2 mm 2 mps 699 mmHg 68%
18:00 +28°C° 0.2 mm 2 mps 699 mmHg 73%
19:00 +27°C° 0.3 mm 2 mps 699 mmHg 75%
20:00 +26°C° 0.3 mm 2 mps 699 mmHg 77%
21:00 +24°C° 0.3 mm 3 mps 700 mmHg 79%
22:00 +22°C° 8 mm 3 mps 700 mmHg 85%
23:00 +21°C° 8 mm 4 mps 699 mmHg 90%

Day after tomorrow, 3 December, Thursday

Time Temperature Precipitation Wind Pressure Humidity
00:00 +19°C° 8 mm 4 mps 699 mmHg 95%
01:00 +19°C° 0.1 mm 4 mps 699 mmHg 95%
02:00 +19°C° 0.1 mm 4 mps 699 mmHg 94%
03:00 +20°C° 0.1 mm 4 mps 698 mmHg 94%
04:00 +20°C° 0 mm 4 mps 698 mmHg 93%
05:00 +20°C° 0 mm 5 mps 698 mmHg 93%
06:00 +20°C° 0 mm 5 mps 698 mmHg 92%
07:00 +20°C° 0.2 mm 5 mps 699 mmHg 93%
08:00 +20°C° 0.2 mm 6 mps 699 mmHg 93%
09:00 +20°C° 0.2 mm 6 mps 700 mmHg 94%
10:00 +21°C° 0.3 mm 6 mps 700 mmHg 89%
11:00 +22°C° 0.3 mm 7 mps 700 mmHg 85%
12:00 +23°C° 0.3 mm 7 mps 700 mmHg 81%
13:00 +24°C° 0.2 mm 7 mps 700 mmHg 77%
14:00 +26°C° 0.2 mm 7 mps 700 mmHg 72%
15:00 +27°C° 0.2 mm 6 mps 700 mmHg 68%
16:00 +26°C° 0.5 mm 5 mps 700 mmHg 73%
17:00 +25°C° 0.5 mm 4 mps 700 mmHg 78%
18:00 +24°C° 0.5 mm 3 mps 700 mmHg 83%
19:00 +22°C° 0 mm 3 mps 701 mmHg 86%
20:00 +21°C° 0 mm 3 mps 701 mmHg 90%
21:00 +20°C° 0 mm 2 mps 702 mmHg 93%
22:00 +19°C° 0 mm 2 mps 702 mmHg 94%
23:00 +18°C° 0 mm 2 mps 703 mmHg 95%

4 December, Friday

Time Temperature Precipitation Wind Pressure Humidity
00:00 +18°C° 0 mm 2 mps 703 mmHg 97%
01:00 +17°C° 0 mm 2 mps 703 mmHg 96%
02:00 +17°C° 0 mm 2 mps 703 mmHg 96%
03:00 +16°C° 0 mm 2 mps 703 mmHg 96%
04:00 +16°C° 0 mm 2 mps 704 mmHg 95%
05:00 +16°C° 0 mm 2 mps 704 mmHg 94%
06:00 +16°C° 0 mm 1 mps 705 mmHg 93%
07:00 +18°C° 0 mm 2 mps 705 mmHg 85%
08:00 +20°C° 0 mm 2 mps 706 mmHg 77%
09:00 +23°C° 0 mm 2 mps 707 mmHg 69%
10:00 +24°C° 0 mm 3 mps 706 mmHg 64%
11:00 +26°C° 0 mm 3 mps 706 mmHg 59%
12:00 +27°C° 0 mm 3 mps 706 mmHg 53%
13:00 +27°C° 0 mm 3 mps 706 mmHg 52%
14:00 +28°C° 0 mm 3 mps 705 mmHg 50%
15:00 +28°C° 0 mm 3 mps 705 mmHg 49%
16:00 +27°C° 0 mm 3 mps 705 mmHg 55%
17:00 +26°C° 0 mm 4 mps 705 mmHg 61%
18:00 +25°C° 0 mm 4 mps 705 mmHg 67%
19:00 +22°C° 0 mm 4 mps 705 mmHg 66%
20:00 +20°C° 0 mm 5 mps 706 mmHg 66%
21:00 +17°C° 0 mm 5 mps 706 mmHg 65%
22:00 +17°C° 0 mm 5 mps 706 mmHg 70%
23:00 +17°C° 0 mm 5 mps 706 mmHg 76%

5 December, Saturday

Time Temperature Precipitation Wind Pressure Humidity
00:00 +17°C° 0 mm 5 mps 706 mmHg 81%
01:00 +17°C° 0 mm 5 mps 706 mmHg 81%
02:00 +17°C° 0 mm 5 mps 706 mmHg 82%
03:00 +18°C° 0 mm 4 mps 706 mmHg 82%
04:00 +16°C° 0.1 mm 5 mps 706 mmHg 83%
05:00 +16°C° 0.1 mm 5 mps 706 mmHg 83%
06:00 +16°C° 0.1 mm 5 mps 707 mmHg 84%
07:00 +16°C° 0.2 mm 5 mps 707 mmHg 85%
08:00 +15°C° 0.2 mm 5 mps 707 mmHg 85%
09:00 +15°C° 0.2 mm 5 mps 708 mmHg 86%
10:00 +15°C° 0.1 mm 5 mps 708 mmHg 86%
11:00 +15°C° 0.1 mm 5 mps 708 mmHg 86%
12:00 +15°C° 0.1 mm 5 mps 708 mmHg 86%
13:00 +15°C° 0 mm 5 mps 707 mmHg 84%
14:00 +16°C° 0 mm 5 mps 707 mmHg 83%
15:00 +16°C° 0 mm 5 mps 707 mmHg 81%
16:00 +16°C° 0 mm 5 mps 707 mmHg 81%
17:00 +17°C° 0 mm 5 mps 706 mmHg 81%
18:00 +17°C° 0 mm 5 mps 706 mmHg 81%
19:00 +17°C° 0 mm 4 mps 706 mmHg 85%
20:00 +15°C° 0 mm 4 mps 706 mmHg 88%
21:00 +14°C° 0 mm 3 mps 706 mmHg 91%
22:00 +14°C° 0 mm 3 mps 706 mmHg 90%
23:00 +14°C° 0 mm 4 mps 706 mmHg 89%

6 December, Sunday

Time Temperature Precipitation Wind Pressure Humidity
00:00 +15°C° 0 mm 4 mps 706 mmHg 89%
01:00 +15°C° 0 mm 4 mps 706 mmHg 88%
02:00 +15°C° 0 mm 4 mps 706 mmHg 87%
03:00 +15°C° 0 mm 4 mps 706 mmHg 86%
04:00 +15°C° 0 mm 4 mps 706 mmHg 86%
05:00 +15°C° 0 mm 4 mps 706 mmHg 86%
06:00 +15°C° 0 mm 4 mps 706 mmHg 86%
07:00 +17°C° 0 mm 4 mps 706 mmHg 84%
08:00 +18°C° 0 mm 4 mps 707 mmHg 83%
09:00 +19°C° 0 mm 4 mps 707 mmHg 81%
10:00 +19°C° 0 mm 4 mps 707 mmHg 80%
11:00 +20°C° 0 mm 4 mps 707 mmHg 79%
12:00 +20°C° 0 mm 4 mps 707 mmHg 78%
13:00 +21°C° 0 mm 4 mps 706 mmHg 76%
14:00 +21°C° 0 mm 4 mps 706 mmHg 75%
15:00 +22°C° 0 mm 4 mps 706 mmHg 74%
16:00 +21°C° 0 mm 4 mps 705 mmHg 75%
17:00 +21°C° 0 mm 5 mps 705 mmHg 76%
18:00 +21°C° 0 mm 5 mps 705 mmHg 77%
19:00 +19°C° 0 mm 4 mps 705 mmHg 82%
20:00 +18°C° 0 mm 4 mps 705 mmHg 86%
21:00 +17°C° 0 mm 4 mps 705 mmHg 90%
22:00 +15°C° 0 mm 4 mps 706 mmHg 90%
23:00 +15°C° 0 mm 4 mps 706 mmHg 91%
Show more

We Need Your Consent

Meteoprog and our Service Providers may store and access personal data such as cookies, device identifiers or other similar technologies on your device and process such data to personalise content and ads, as well as provide social media features and to analyse the traffic.

  • Store and/or access information on your device

    Cookies, device identifiers or other information can be stored or accessed on your device for the purposes indicated above.

  • Personalised ads and content, ad and content measurement, audience insights, and products development

    Ads and content can be personalised based on a profile. More data can be added to better personalise ads and content. Ad and content performance can be measured. Insights about the audience who saw the ads and content can be derived. Such data can be used to develop or improve user’s experience, systems and software.

By clicking ‘I Agree’ you will allow the use of indicated cookies, device identifiers, web beacons or other similar technologies. Your settings can be changed in the browser on your device.

For certain purposes, legitimate interests may be relied on, rather than consent. You can read more about this in our Privacy and Cookie Policy.